When you browse on this site, cookies collect data to enhance your experience and personalize the content and advertising you see.
Visit our Privacy Policy to learn more. By continuing to use the site, you agree to this use of cookies and data.
  • In Hungary
  • List of Countries
  • For 7 days
  • Water Temperature
  • Satellite Maps
  • Weather Map
  • News
  • Weather Widgets
  • user-avatar
    Login

    Hourly Weather Chernavy

    Today, 22 May, Wednesday

    Time Temperature Precipitation Wind Pressure Humidity
    00:00 +16°C° 0 mm 2 mps 741 mmHg 75%
    01:00 +15°C° 0 mm 2 mps 741 mmHg 77%
    02:00 +14°C° 0 mm 2 mps 741 mmHg 79%
    03:00 +15°C° 0 mm 2 mps 740 mmHg 79%
    04:00 +15°C° 0 mm 2 mps 740 mmHg 80%
    05:00 +15°C° 0 mm 2 mps 740 mmHg 81%
    06:00 +17°C° 0 mm 2 mps 740 mmHg 75%
    07:00 +19°C° 0 mm 2 mps 740 mmHg 69%
    08:00 +20°C° 0 mm 2 mps 740 mmHg 64%
    09:00 +21°C° 0 mm 2 mps 739 mmHg 60%
    10:00 +23°C° 0 mm 2 mps 739 mmHg 55%
    11:00 +24°C° 0 mm 3 mps 739 mmHg 51%
    12:00 +25°C° 0 mm 2 mps 738 mmHg 50%
    13:00 +25°C° 0 mm 2 mps 738 mmHg 48%
    14:00 +26°C° 0 mm 2 mps 738 mmHg 47%
    15:00 +25°C° 0.2 mm 2 mps 738 mmHg 54%
    16:00 +23°C° 0.2 mm 2 mps 737 mmHg 61%
    17:00 +21°C° 0.2 mm 2 mps 737 mmHg 68%
    18:00 +21°C° 0.2 mm 1 mps 737 mmHg 75%
    19:00 +19°C° 0.2 mm 1 mps 737 mmHg 83%
    20:00 +18°C° 0.2 mm 1 mps 736 mmHg 90%
    21:00 +16°C° 0.6 mm 1 mps 736 mmHg 91%
    22:00 +15°C° 0.6 mm 1 mps 736 mmHg 92%
    23:00 +13°C° 0.6 mm 0 mps 736 mmHg 93%

    Tomorrow, 23 May, Thursday

    Time Temperature Precipitation Wind Pressure Humidity
    00:00 +14°C° 0 mm 1 mps 736 mmHg 94%
    01:00 +13°C° 0 mm 1 mps 736 mmHg 95%
    02:00 +13°C° 0 mm 1 mps 736 mmHg 96%
    03:00 +13°C° 0 mm 1 mps 736 mmHg 96%
    04:00 +13°C° 0 mm 1 mps 736 mmHg 96%
    05:00 +14°C° 0 mm 1 mps 736 mmHg 96%
    06:00 +15°C° 0 mm 2 mps 736 mmHg 92%
    07:00 +16°C° 0 mm 2 mps 737 mmHg 88%
    08:00 +17°C° 0 mm 2 mps 737 mmHg 83%
    09:00 +18°C° 0 mm 2 mps 737 mmHg 76%
    10:00 +19°C° 0 mm 3 mps 737 mmHg 69%
    11:00 +20°C° 0 mm 3 mps 737 mmHg 62%
    12:00 +21°C° 0 mm 3 mps 737 mmHg 61%
    13:00 +21°C° 0 mm 3 mps 737 mmHg 60%
    14:00 +21°C° 0 mm 3 mps 738 mmHg 59%
    15:00 +20°C° 0 mm 3 mps 737 mmHg 61%
    16:00 +20°C° 0 mm 3 mps 737 mmHg 62%
    17:00 +19°C° 0 mm 3 mps 737 mmHg 64%
    18:00 +18°C° 0 mm 3 mps 738 mmHg 68%
    19:00 +16°C° 0 mm 3 mps 738 mmHg 72%
    20:00 +14°C° 0 mm 2 mps 738 mmHg 76%
    21:00 +13°C° 0 mm 2 mps 738 mmHg 78%
    22:00 +12°C° 0 mm 2 mps 739 mmHg 79%
    23:00 +10°C° 0 mm 2 mps 739 mmHg 80%

    Day after tomorrow, 24 May, Friday

    Time Temperature Precipitation Wind Pressure Humidity
    00:00 +10°C° 0 mm 2 mps 739 mmHg 81%
    01:00 +9°C° 0 mm 2 mps 739 mmHg 82%
    02:00 +9°C° 0 mm 2 mps 739 mmHg 82%
    03:00 +9°C° 0 mm 2 mps 739 mmHg 81%
    04:00 +9°C° 0 mm 2 mps 739 mmHg 79%
    05:00 +10°C° 0 mm 2 mps 739 mmHg 77%
    06:00 +11°C° 0 mm 3 mps 740 mmHg 73%
    07:00 +13°C° 0 mm 3 mps 740 mmHg 69%
    08:00 +14°C° 0 mm 3 mps 740 mmHg 65%
    09:00 +17°C° 0 mm 3 mps 740 mmHg 63%
    10:00 +18°C° 0 mm 3 mps 740 mmHg 62%
    11:00 +19°C° 0 mm 3 mps 740 mmHg 61%
    12:00 +20°C° 0.1 mm 3 mps 739 mmHg 60%
    13:00 +21°C° 0.1 mm 4 mps 739 mmHg 59%
    14:00 +22°C° 0.1 mm 4 mps 739 mmHg 59%
    15:00 +21°C° 0.7 mm 4 mps 739 mmHg 66%
    16:00 +20°C° 0.7 mm 3 mps 738 mmHg 72%
    17:00 +20°C° 0.7 mm 3 mps 738 mmHg 79%
    18:00 +18°C° 0.4 mm 3 mps 738 mmHg 83%
    19:00 +17°C° 0.4 mm 3 mps 737 mmHg 87%
    20:00 +16°C° 0.4 mm 3 mps 737 mmHg 91%
    21:00 +16°C° 0.5 mm 3 mps 737 mmHg 92%
    22:00 +16°C° 0.5 mm 3 mps 737 mmHg 94%
    23:00 +14°C° 0.5 mm 3 mps 737 mmHg 95%

    25 May, Saturday

    Time Temperature Precipitation Wind Pressure Humidity
    00:00 +14°C° 0.3 mm 3 mps 736 mmHg 96%
    01:00 +14°C° 0.3 mm 3 mps 736 mmHg 96%
    02:00 +14°C° 0.3 mm 3 mps 735 mmHg 97%
    03:00 +14°C° 0.8 mm 3 mps 735 mmHg 97%
    04:00 +14°C° 0.8 mm 3 mps 735 mmHg 96%
    05:00 +14°C° 0.8 mm 3 mps 735 mmHg 96%
    06:00 +16°C° 1.1 mm 3 mps 734 mmHg 96%
    07:00 +16°C° 1.1 mm 2 mps 734 mmHg 95%
    08:00 +17°C° 1.1 mm 2 mps 734 mmHg 94%
    09:00 +18°C° 0.2 mm 2 mps 734 mmHg 91%
    10:00 +19°C° 0.2 mm 2 mps 734 mmHg 87%
    11:00 +20°C° 0.2 mm 2 mps 734 mmHg 84%
    12:00 +20°C° 0.5 mm 2 mps 733 mmHg 83%
    13:00 +20°C° 0.5 mm 2 mps 733 mmHg 81%
    14:00 +20°C° 0.5 mm 2 mps 733 mmHg 80%
    15:00 +20°C° 0.8 mm 2 mps 732 mmHg 83%
    16:00 +19°C° 0.8 mm 2 mps 732 mmHg 85%
    17:00 +19°C° 0.8 mm 2 mps 732 mmHg 88%
    18:00 +17°C° 0.9 mm 2 mps 731 mmHg 90%
    19:00 +16°C° 0.9 mm 2 mps 731 mmHg 93%
    20:00 +15°C° 0.9 mm 2 mps 731 mmHg 95%
    21:00 +15°C° 0 mm 2 mps 731 mmHg 95%
    22:00 +14°C° 0 mm 2 mps 731 mmHg 96%
    23:00 +12°C° 0 mm 3 mps 731 mmHg 96%

    26 May, Sunday

    Time Temperature Precipitation Wind Pressure Humidity
    00:00 +12°C° 0 mm 2 mps 731 mmHg 95%
    01:00 +10°C° 0 mm 2 mps 731 mmHg 94%
    02:00 +9°C° 0 mm 2 mps 731 mmHg 93%
    03:00 +9°C° 0 mm 2 mps 731 mmHg 92%
    04:00 +10°C° 0 mm 2 mps 731 mmHg 92%
    05:00 +10°C° 0 mm 2 mps 731 mmHg 91%
    06:00 +12°C° 0 mm 2 mps 731 mmHg 86%
    07:00 +13°C° 0 mm 3 mps 731 mmHg 81%
    08:00 +14°C° 0 mm 3 mps 731 mmHg 76%
    09:00 +15°C° 0 mm 4 mps 731 mmHg 69%
    10:00 +17°C° 0 mm 4 mps 731 mmHg 63%
    11:00 +17°C° 0 mm 4 mps 731 mmHg 56%
    12:00 +17°C° 0 mm 4 mps 731 mmHg 56%
    13:00 +17°C° 0 mm 4 mps 731 mmHg 55%
    14:00 +17°C° 0 mm 4 mps 731 mmHg 55%
    15:00 +17°C° 0 mm 4 mps 731 mmHg 56%
    16:00 +17°C° 0 mm 4 mps 731 mmHg 57%
    17:00 +15°C° 0 mm 4 mps 731 mmHg 59%
    18:00 +14°C° 0 mm 3 mps 731 mmHg 66%
    19:00 +12°C° 0 mm 3 mps 731 mmHg 73%
    20:00 +12°C° 0 mm 2 mps 731 mmHg 81%
    21:00 +10°C° 0 mm 2 mps 731 mmHg 85%
    22:00 +10°C° 0 mm 2 mps 730 mmHg 88%
    23:00 +9°C° 0 mm 2 mps 730 mmHg 92%

    27 May, Monday

    Time Temperature Precipitation Wind Pressure Humidity
    00:00 +9°C° 0 mm 2 mps 730 mmHg 94%
    01:00 +9°C° 0 mm 2 mps 730 mmHg 95%
    02:00 +9°C° 0 mm 2 mps 730 mmHg 97%
    03:00 +9°C° 0.6 mm 2 mps 730 mmHg 97%
    04:00 +9°C° 0.6 mm 2 mps 730 mmHg 97%
    05:00 +10°C° 0.6 mm 2 mps 730 mmHg 96%
    06:00 +10°C° 0.7 mm 3 mps 730 mmHg 94%
    07:00 +11°C° 0.7 mm 3 mps 730 mmHg 91%
    08:00 +11°C° 0.7 mm 4 mps 730 mmHg 89%
    09:00 +12°C° 0.2 mm 4 mps 730 mmHg 83%
    10:00 +12°C° 0.2 mm 5 mps 731 mmHg 76%
    11:00 +13°C° 0.2 mm 5 mps 731 mmHg 70%
    12:00 +12°C° 0.1 mm 5 mps 731 mmHg 69%
    13:00 +12°C° 0.1 mm 5 mps 731 mmHg 68%
    14:00 +12°C° 0.1 mm 5 mps 731 mmHg 67%
    15:00 +12°C° 0 mm 5 mps 732 mmHg 67%
    16:00 +12°C° 0 mm 4 mps 732 mmHg 66%
    17:00 +12°C° 0 mm 4 mps 732 mmHg 66%
    18:00 +11°C° 0 mm 4 mps 732 mmHg 71%
    19:00 +10°C° 0 mm 4 mps 732 mmHg 76%
    20:00 +9°C° 0 mm 3 mps 732 mmHg 81%
    21:00 +9°C° 0 mm 3 mps 732 mmHg 84%
    22:00 +8°C° 0 mm 3 mps 733 mmHg 86%
    23:00 +8°C° 0 mm 3 mps 733 mmHg 89%
    Show more